TimePDT,TemperatureF,Dew PointF,Humidity,Sea Level PressureIn,VisibilityMPH,Wind Direction,Wind SpeedMPH,Gust SpeedMPH,PrecipitationIn,Events,Conditions,WindDirDegrees,DateUTC
12:54 AM,51.1,46.0,83,30.12,10.0,SSW,8.1,-,N/A,,Overcast,210,2014-03-14 07:54:00
1:54 AM,50.0,46.9,89,30.13,8.0,South,5.8,-,0.02,Rain,Light Rain,170,2014-03-14 08:54:00
2:54 AM,50.0,46.9,89,30.12,9.0,SSE,6.9,-,0.06,Rain,Light Rain,160,2014-03-14 09:54:00
3:54 AM,50.0,48.0,93,30.11,10.0,SSE,8.1,-,0.01,,Overcast,160,2014-03-14 10:54:00
4:54 AM,50.0,48.0,93,30.12,7.0,SW,5.8,-,0.02,Rain,Light Rain,220,2014-03-14 11:54:00
5:54 AM,50.0,46.9,89,30.13,10.0,SSE,6.9,-,0.05,,Overcast,160,2014-03-14 12:54:00
6:54 AM,50.0,46.9,89,30.14,10.0,South,8.1,-,N/A,,Overcast,190,2014-03-14 13:54:00
7:54 AM,50.0,46.9,89,30.17,7.0,South,5.8,-,0.00,,Overcast,180,2014-03-14 14:54:00
8:54 AM,51.1,46.9,86,30.19,7.0,SSW,11.5,-,N/A,,Overcast,200,2014-03-14 15:54:00
9:54 AM,54.0,48.0,80,30.22,7.0,South,10.4,-,N/A,,Overcast,180,2014-03-14 16:54:00
10:37 AM,54.0,48.0,80,30.23,10.0,SSW,11.5,-,N/A,,Overcast,210,2014-03-14 17:37:00
10:54 AM,55.0,48.9,80,30.24,10.0,SW,12.7,-,0.00,Rain,Light Rain,220,2014-03-14 17:54:00
11:54 AM,55.9,50.0,80,30.26,7.0,SSW,12.7,-,0.00,,Overcast,210,2014-03-14 18:54:00
12:54 PM,57.0,52.0,83,30.27,10.0,SW,10.4,-,0.01,,Mostly Cloudy,220,2014-03-14 19:54:00
1:11 PM,57.9,51.1,78,30.27,10.0,SW,11.5,-,N/A,,Scattered Clouds,230,2014-03-14 20:11:00
1:54 PM,59.0,46.9,64,30.29,10.0,West,16.1,-,N/A,,Mostly Cloudy,260,2014-03-14 20:54:00
2:54 PM,61.0,46.9,60,30.28,10.0,WSW,9.2,-,N/A,,Scattered Clouds,240,2014-03-14 21:54:00
3:54 PM,62.1,46.0,56,30.28,10.0,WSW,10.4,-,N/A,,Scattered Clouds,240,2014-03-14 22:54:00
4:54 PM,62.1,45.0,53,30.29,10.0,WSW,15.0,-,N/A,,Scattered Clouds,240,2014-03-14 23:54:00
5:54 PM,60.1,43.0,53,30.30,10.0,WSW,10.4,-,N/A,,Scattered Clouds,240,2014-03-15 00:54:00
6:54 PM,57.0,44.1,62,30.30,10.0,WSW,6.9,-,N/A,,Scattered Clouds,250,2014-03-15 01:54:00
7:54 PM,52.0,44.1,74,30.31,10.0,SW,4.6,-,N/A,,Partly Cloudy,230,2014-03-15 02:54:00
8:54 PM,48.9,43.0,80,30.32,10.0,Calm,Calm,-,N/A,,Partly Cloudy,0,2014-03-15 03:54:00
9:54 PM,48.0,44.1,86,30.33,10.0,Calm,Calm,-,N/A,,Scattered Clouds,0,2014-03-15 04:54:00
10:54 PM,46.9,43.0,86,30.34,10.0,Calm,Calm,-,N/A,,Partly Cloudy,0,2014-03-15 05:54:00
11:54 PM,46.0,42.1,86,30.33,10.0,Calm,Calm,-,N/A,,Clear,0,2014-03-15 06:54:00